Cloud_Cover
100 100 100 100 86 22 26 89 54 93 69 7 82 100 67 5 9 62 95 65 36 16 26 93 50 100 100 100 93 100 26 11 10 1 0 0 0 0 0 0 0 0 4
34 9 100 92 100 95 33 12 67 36 35 99 67 65 84 97 1 8 33 73 8 77 53 100 94 94 100 100 100 100 100 90 25 2 0 0 0 0 0 5 14 25 55
0 0 2 13 82 100 49 30 44 21 69 10 100 100 90 32 73 62 11 23 74 72 78 86 100 56 100 100 100 100 100 100 96 69 8 22 24 2 4 7 24 90 43
0 0 0 3 4 6 63 5 5 5 1 67 54 100 98 60 97 93 63 28 14 16 100 93 100 64 18 56 80 85 100 100 100 100 53 50 31 41 5 37 35 71 100
0 0 0 0 0 0 5 7 31 90 23 4 3 47 83 98 55 100 100 98 98 62 75 100 100 100 91 33 58 5 81 95 19 15 10 100 77 49 29 54 77 56 94
0 0 0 0 0 0 0 2 5 1 6 96 10 5 0 96 96 100 100 100 100 65 5 20 9 60 100 100 42 5 21 100 100 73 84 100 100 36 10 4 40 100 99
0 0 0 0 0 0 0 0 0 0 0 0 3 5 0 5 100 100 100 100 100 100 100 62 9 2 95 100 100 100 15 5 23 99 100 100 13 5 5 6 4 5 59
0 0 0 0 0 0 0 0 0 0 0 0 0 0 3 0 14 100 100 100 100 100 100 99 81 4 10 80 100 25 40 5 5 4 47 59 10 5 5 3 1 29 99
0 0 0 0 0 0 0 0 0 0 0 0 0 0 0 1 5 96 56 100 100 100 100 100 100 97 8 67 47 70 39 100 28 99 24 4 5 5 10 5 32 99 93
0 0 0 0 0 0 0 0 0 0 0 0 0 0 0 0 0 5 98 66 100 100 100 100 83 100 100 99 63 100 71 10 52 78 43 20 49 5 36 7 41 89 90
0 0 2 0 0 0 0 2 17 3 0 0 0 0 0 0 0 0 7 32 58 100 100 100 100 89 46 42 100 100 100 62 100 62 46 100 73 15 0 4 22 5 79
7 0 0 1 2 2 37 18 8 8 10 0 0 0 0 0 0 0 22 78 1 2 80 100 100 100 25 91 76 100 100 100 100 100 92 100 100 91 39 9 66 97 62
87 53 61 76 63 67 74 50 31 15 28 22 2 0 0 0 0 0 2 96 98 80 13 93 100 100 67 66 98 42 75 75 60 100 100 100 100 97 100 100 100 100 100
78 100 63 98 100 99 96 96 89 100 100 100 99 5 0 0 0 0 10 15 83 45 35 54 67 92 100 56 33 41 12 5 8 36 100 79 37 54 100 100 100 100 100
98 72 100 96 96 94 74 96 96 40 34 57 77 50 98 5 2 60 74 72 100 100 30 49 66 96 91 66 20 68 48 37 65 25 17 86 95 62 95 99 100 100 100
100 100 100 100 100 100 79 95 100 96 42 28 2 40 0 0 0 29 100 100 100 100 45 65 100 100 100 100 85 100 72 100 100 82 50 12 99 63 78 22 100 100 100
100 100 100 100 100 67 79 100 75 36 59 36 53 61 96 15 15 59 100 100 100 100 100 100 99 97 100 93 85 100 100 100 100 100 88 40 74 84 26 30 63 8 99
100 100 100 100 100 100 100 85 100 24 94 69 100 98 53 99 100 100 100 100 79 92 100 98 85 66 85 100 94 81 94 100 84 72 64 9 46 8 73 24 47 48 44
100 97 100 100 100 94 71 100 100 100 97 96 95 100 98 92 100 100 100 91 6 0 22 14 5 4 50 88 100 81 61 86 80 100 58 31 51 37 56 37 35 100 47
100 100 100 100 100 100 100 100 100 100 100 98 100 97 100 97 95 31 46 25 1 3 8 20 14 1 12 46 100 100 76 99 46 83 37 40 78 59 14 70 96 100 52
100 100 100 100 100 100 100 100 100 100 100 100 100 63 99 100 45 99 100 71 14 2 2 5 17 56 13 15 99 100 100 100 100 98 87 79 66 78 84 46 93 100 94
100 100 100 100 100 100 100 100 100 100 100 100 100 100 100 97 59 98 89 12 100 96 4 25 15 21 6 21 17 27 100 100 100 74 36 63 45 84 86 45 82 100 96
100 100 100 100 100 100 100 100 100 100 100 100 100 97 86 21 84 100 97 100 100 100 100 46 19 31 9 38 50 92 79 100 100 100 69 3 65 67 54 77 78 100 100
100 100 100 100 100 100 100 100 100 100 100 100 100 99 82 67 95 89 40 100 100 72 48 64 100 94 52 36 66 99 98 85 100 100 100 29 69 75 89 100 100 100 100
100 100 100 100 100 100 100 100 100 100 100 100 100 99 97 100 100 97 93 100 97 56 55 78 73 24 51 98 98 79 96 51 72 100 100 100 100 100 100 100 100 100 100
100 100 100 100 100 100 100 100 100 100 100 100 100 100 100 100 90 41 99 100 100 41 23 11 54 41 42 100 74 81 100 100 79 100 100 100 100 100 100 100 100 100 100